Flag for U.S.A. Weather past 2 weeks in Aurora, Colorado, U.S.A.

Now
52 °F

Passing clouds.


Feels Like: 49 °F
Forecast: 50 / 64 °F
Wind: 8 mph from South

Location: Buckley Air Force Base


UV Index: 5 (Moderate)

Visibility: 10 mi


Pressure: 29.74 "Hg

Humidity: 44%

Dew point: 30 °F

Location of AuroraLocation

Historic Weather in Aurora

°F

Aurora temperature yesterday

Maximum temperature yesterday: 77 °F (at 2:55 PM)
Minimum temperature yesterday: 43 °F (at 5:55 AM)
Average temperature yesterday: 60 °F

Past Weeks' High & Low Weather Summary

 TemperatureHumidityPressure
High77 °F (Apr 18, 2:55 PM)100% (Apr 3, 11:55 PM)30.42 "Hg (Apr 3, 11:55 PM)
Low14 °F (Apr 14, 5:55 AM)11% (Apr 11, 4:55 PM)29.51 "Hg (Apr 12, 5:55 PM)
Average47 °F49%29.91 "Hg
* Reported Apr 3 11:55 PM — Apr 18 11:55 PM, Aurora, Weather by CustomWeather, © 2014

Note: Actual official high and low records may vary slightly from our data, if they occured in-between our weather recording intervals... More about our weather records

Advertising

Historic Weather Conditions — Data for Previous 24 hours

 ConditionsComfort  
Time TempWeatherWind HumidityBarometerVisibility
11:55 PM
Apr 18
54 °FPassing clouds.8 mph44%29.74 "Hg10 mi
10:55 PM54 °FPassing clouds.10 mph44%29.74 "Hg10 mi
9:55 PM61 °FPartly cloudy.9 mph34%29.73 "Hg25 mi
8:55 PM66 °FPassing clouds.No wind22%29.72 "Hg25 mi
7:55 PM63 °FBroken clouds.7 mph30%29.74 "Hg70 mi
6:55 PM68 °FScattered showers. Broken clouds.12 mph23%29.70 "Hg70 mi
5:55 PM72 °FScattered showers. Partly sunny.20 mph20%29.70 "Hg70 mi
4:55 PM75 °FBroken clouds.No wind15%29.66 "Hg70 mi
3:55 PM77 °FBroken clouds.12 mph15%29.68 "Hg70 mi
2:55 PM77 °FPartly sunny.12 mph17%29.73 "Hg70 mi
1:55 PM75 °FPartly sunny.7 mph15%29.76 "Hg70 mi
12:55 PM75 °FBroken clouds.10 mph16%29.80 "Hg70 mi
11:55 AM72 °FBroken clouds.10 mph17%29.81 "Hg70 mi
10:55 AM70 °FBroken clouds.8 mph17%29.85 "Hg70 mi
9:55 AM68 °FScattered clouds.7 mph20%29.85 "Hg70 mi
8:55 AM61 °FBroken clouds.14 mph27%29.87 "Hg70 mi
7:55 AM50 °FBroken clouds.10 mph40%29.91 "Hg70 mi
6:55 AM46 °FPassing clouds.10 mph46%29.90 "Hg70 mi
5:55 AM43 °FPassing clouds.10 mph53%29.89 "Hg10 mi
4:55 AM46 °FPassing clouds.7 mph46%29.88 "Hg10 mi
3:55 AM45 °FPassing clouds.10 mph53%29.88 "Hg10 mi
2:55 AM45 °FPassing clouds.13 mph57%29.88 "Hg10 mi
1:55 AM45 °FPassing clouds.15 mph61%29.90 "Hg10 mi
Weather by CustomWeather, © 2014

See weather overview